Wind_Speed
16 16 16 16 16 16 16 16 17 17 17 18 18 19 20 20 20 20 20 21 21 22 21 22 22 23 23 23 24 24 24 24 24 23 23 23 24 24
18 18 17 17 18 18 18 18 17 17 18 19 20 20 20 20 21 22 21 21 21 21 21 21 22 23 24 25 25 25 24 24 24 24 24 24 24 24
19 19 19 18 19 19 19 19 19 19 18 19 19 19 20 20 21 21 21 21 21 21 21 21 22 23 23 24 25 25 25 25 26 26 26 26 25 26
19 19 20 20 20 20 20 19 19 19 19 19 20 20 20 20 20 21 21 21 21 22 21 22 22 23 23 24 25 25 25 25 25 26 26 27 27 27
20 20 20 20 20 20 20 20 20 20 19 20 20 20 20 20 21 21 21 21 21 22 22 22 22 22 24 24 25 26 26 26 27 27 27 27 27 27
21 21 20 20 20 20 20 21 21 20 20 20 20 20 20 20 21 21 21 21 22 22 22 22 22 22 23 24 25 26 26 27 27 27 28 28 27 27
21 21 21 21 21 21 21 21 21 21 21 21 20 20 21 21 21 21 21 21 22 22 22 22 23 23 23 24 24 25 26 26 27 27 26 27 27 27
21 21 22 22 22 22 22 22 21 21 21 21 20 20 20 21 20 21 21 22 22 23 23 23 23 23 23 23 24 24 24 24 25 25 26 26 27 28
21 21 21 22 22 23 23 22 21 21 21 20 20 20 20 20 21 21 22 22 22 22 22 22 23 23 22 22 23 23 23 23 23 24 25 25 26 27
21 21 21 21 21 22 22 21 21 20 21 21 20 20 20 21 21 22 22 22 22 22 22 22 22 23 23 22 22 22 23 24 24 24 24 24 24 25
21 21 21 20 21 20 21 21 21 21 21 21 21 20 20 20 21 21 21 21 20 21 21 21 22 22 21 22 22 22 22 23 23 23 24 24 24 24
21 21 21 20 19 19 19 20 21 21 21 21 21 20 20 20 20 21 21 21 21 21 21 21 21 21 21 21 21 22 22 22 22 23 23 23 23 23
21 21 20 20 20 20 20 20 20 21 21 21 21 21 21 20 21 21 21 21 21 21 21 20 20 21 21 20 21 21 21 22 22 22 22 22 21 21
22 22 21 20 21 21 20 20 21 21 21 21 21 21 21 20 20 20 20 20 20 20 20 19 20 21 21 21 21 22 22 22 22 22 22 21 21 21
21 21 20 20 20 20 20 20 21 21 21 21 21 21 20 20 19 18 19 19 19 20 20 20 20 21 22 22 22 22 22 22 22 21 21 21 21 22
20 20 20 20 20 21 21 20 21 21 21 21 21 20 20 19 18 18 19 19 19 19 20 21 22 22 23 23 22 21 21 21 21 21 21 21 21 22
20 20 20 21 21 22 21 21 21 21 21 21 20 20 19 19 19 19 19 19 19 20 20 21 22 22 22 21 22 22 22 22 21 21 21 21 22 22
21 21 21 21 21 21 21 21 21 21 21 21 21 20 19 19 19 19 19 19 20 20 20 21 21 22 22 22 23 23 23 23 22 22 21 21 21 22
20 20 20 21 22 22 22 21 21 21 21 21 21 21 21 21 20 21 20 20 21 21 21 21 21 22 22 23 23 24 24 23 22 22 21 21 22 22
21 21 21 22 22 22 22 22 22 22 22 22 21 21 22 23 22 22 22 22 22 22 22 23 23 23 23 23 23 23 23 23 22 22 22 22 22 22
21 21 22 22 23 22 22 23 23 23 23 23 23 23 23 23 23 23 24 24 24 24 24 24 24 25 24 24 23 22 22 22 22 22 23 22 22 22
22 22 22 22 22 23 23 23 24 24 24 24 24 25 25 25 25 25 25 25 25 24 24 24 24 24 24 23 23 22 22 22 22 23 23 23 23 23
21 22 23 23 23 23 24 24 25 25 25 26 25 26 26 26 27 27 27 27 25 25 25 25 24 24 23 23 23 23 23 23 23 22 23 23 23 23
Wind_Direction
271 270 270 271 272 273 275 277 278 277 276 278 280 279 278 277 276 275 273 271 270 272 271 270 267 266 265 266 266 264 262 263 263 263 263 264 265 266
271 269 269 271 274 274 276 279 279 279 279 279 282 282 279 278 278 275 272 271 270 272 273 273 271 269 267 267 267 265 263 263 263 264 263 263 265 265
273 271 270 273 276 276 278 279 280 281 281 280 282 281 280 280 280 275 273 270 270 270 271 275 275 271 269 268 266 265 266 268 267 266 264 263 264 265
274 272 271 275 276 279 277 278 280 281 282 283 283 281 280 281 280 278 274 272 270 271 273 276 277 273 270 269 267 267 267 268 268 267 267 266 266 266
272 273 273 276 277 278 278 279 280 281 282 283 283 282 281 281 279 279 276 273 271 272 273 275 277 276 272 269 267 267 267 268 268 267 266 265 264 264
272 273 275 274 275 276 277 279 279 280 282 283 283 281 281 281 281 280 278 278 275 274 274 274 277 278 275 273 271 270 267 267 267 268 267 265 263 263
273 273 273 273 273 274 275 278 278 279 281 282 283 281 280 280 282 281 281 280 278 276 275 276 278 278 278 276 274 272 270 269 268 267 265 265 265 264
271 273 272 273 272 272 274 275 277 279 280 282 282 281 280 280 282 283 282 281 279 276 275 274 275 277 278 278 277 275 274 271 267 265 264 265 266 266
270 273 274 272 272 272 271 273 277 279 281 282 281 280 279 279 280 281 283 283 281 277 274 273 274 276 277 279 279 276 274 272 270 268 265 265 267 266
271 273 274 275 275 272 271 272 275 279 282 283 282 281 279 279 280 280 282 282 279 278 276 275 275 276 276 280 279 277 275 273 269 268 267 266 265 266
271 271 273 275 274 273 271 272 274 278 281 282 283 281 281 280 280 281 283 283 282 279 278 276 275 275 278 282 282 279 276 274 272 270 267 266 267 267
271 271 271 272 272 273 274 273 273 276 278 281 282 280 280 280 280 280 282 282 281 280 279 277 275 276 279 281 283 282 279 276 274 272 269 268 268 269
270 270 270 270 270 271 274 275 277 277 276 279 279 279 279 280 279 280 281 281 281 281 279 277 276 278 280 281 282 284 282 279 277 274 272 271 271 270
268 267 268 269 270 271 272 274 276 277 278 280 280 279 279 279 280 280 281 282 283 283 280 278 277 279 279 279 280 282 283 281 279 275 272 272 272 271
266 266 264 265 268 271 272 273 275 276 277 279 281 282 282 282 281 282 283 284 285 283 282 280 279 280 280 281 282 283 283 282 280 275 271 271 273 272
265 266 265 265 267 269 272 273 275 276 275 277 279 281 280 279 280 282 284 284 284 284 284 282 280 281 282 282 283 285 285 284 284 278 273 272 274 275
265 265 265 266 267 268 270 272 273 274 274 276 277 275 275 277 277 281 285 287 285 285 285 284 282 282 282 282 283 285 285 284 285 283 278 275 275 276
266 265 265 265 265 267 269 270 272 273 274 275 273 272 273 275 276 279 282 286 288 288 287 286 284 283 284 284 284 285 285 283 283 281 279 279 278 277
267 266 266 266 265 266 267 269 271 272 274 275 275 274 274 276 278 281 283 286 288 287 286 286 285 284 285 285 285 285 284 283 282 280 278 279 279 279
270 268 268 268 268 267 266 266 268 270 271 272 274 275 276 276 277 279 281 283 286 285 285 284 285 285 284 285 285 284 283 281 279 279 279 279 281 281
269 268 268 267 267 267 267 267 268 269 272 273 272 274 277 278 278 279 281 282 284 283 283 284 285 285 285 287 287 284 281 280 280 280 280 281 283 283
268 269 269 270 270 267 267 268 270 271 272 274 274 274 275 276 278 279 282 284 284 281 281 283 284 284 284 285 285 285 281 280 281 283 283 284 284 285
269 269 269 269 271 271 270 270 270 271 273 274 275 274 274 275 276 278 280 281 281 281 281 281 282 282 283 282 282 282 282 281 282 283 284 285 285 286
Height
5818 5817 5817 5817 5816 5815 5815 5814 5814 5813 5812 5810 5809 5808 5807 5806 5805 5804 5804 5804 5804 5804 5804 5803 5803 5803 5803 5803 5804 5804 5804 5805 5805 5805 5805 5805 5805 5805
5813 5812 5812 5811 5810 5810 5809 5808 5807 5807 5806 5805 5803 5802 5800 5799 5798 5797 5797 5797 5797 5797 5797 5797 5796 5796 5796 5797 5797 5797 5797 5798 5798 5798 5798 5798 5798 5798
5807 5807 5806 5806 5804 5804 5803 5802 5801 5801 5800 5798 5797 5795 5794 5793 5792 5791 5791 5791 5790 5790 5790 5790 5789 5789 5789 5789 5790 5790 5790 5790 5790 5791 5791 5791 5791 5791
5801 5801 5800 5800 5799 5798 5797 5796 5796 5795 5794 5793 5791 5790 5789 5787 5786 5785 5784 5784 5784 5784 5783 5783 5783 5782 5782 5782 5782 5782 5783 5783 5783 5783 5783 5783 5783 5783
5795 5795 5794 5793 5792 5792 5791 5791 5790 5789 5788 5787 5786 5784 5783 5781 5780 5779 5778 5778 5778 5777 5777 5777 5776 5775 5775 5775 5775 5775 5775 5775 5775 5775 5774 5774 5774 5774
5789 5788 5788 5787 5787 5786 5785 5785 5784 5783 5782 5781 5780 5778 5777 5775 5774 5773 5772 5772 5771 5771 5771 5770 5770 5769 5768 5768 5768 5767 5767 5767 5766 5766 5766 5766 5766 5766
5783 5782 5781 5781 5780 5780 5779 5779 5778 5777 5776 5775 5773 5772 5771 5770 5769 5768 5767 5766 5765 5764 5764 5764 5763 5762 5761 5760 5760 5759 5759 5758 5758 5757 5757 5757 5757 5757
5777 5776 5775 5774 5774 5773 5773 5772 5772 5771 5770 5769 5767 5766 5765 5764 5763 5762 5761 5760 5759 5758 5757 5757 5756 5755 5754 5753 5753 5752 5751 5750 5750 5749 5749 5749 5749 5749
5770 5769 5768 5768 5767 5767 5766 5766 5765 5764 5764 5763 5762 5761 5759 5758 5758 5757 5755 5754 5753 5751 5751 5750 5749 5749 5748 5746 5745 5744 5743 5743 5742 5742 5741 5741 5741 5741
5763 5763 5762 5761 5760 5760 5760 5759 5758 5758 5757 5757 5756 5755 5753 5752 5751 5750 5749 5748 5747 5745 5744 5744 5743 5742 5741 5740 5739 5738 5736 5735 5735 5734 5734 5734 5734 5733
5757 5756 5755 5755 5754 5753 5753 5752 5752 5751 5751 5750 5749 5748 5747 5746 5745 5744 5743 5742 5740 5739 5738 5738 5737 5736 5735 5734 5732 5731 5730 5728 5728 5727 5727 5727 5726 5726
5750 5749 5749 5748 5748 5747 5747 5747 5746 5745 5745 5744 5743 5742 5741 5740 5738 5737 5736 5736 5734 5733 5732 5731 5731 5730 5729 5727 5726 5724 5723 5722 5721 5720 5720 5719 5719 5719
5743 5742 5742 5742 5741 5741 5741 5740 5740 5739 5739 5738 5737 5736 5735 5734 5732 5731 5730 5729 5728 5727 5726 5725 5725 5723 5723 5722 5720 5718 5717 5716 5714 5713 5713 5713 5712 5712
5736 5736 5736 5736 5735 5735 5735 5734 5734 5733 5732 5732 5731 5730 5729 5728 5727 5725 5724 5723 5722 5721 5720 5719 5719 5718 5717 5716 5715 5713 5711 5710 5708 5707 5707 5706 5706 5705
5730 5730 5729 5729 5729 5729 5728 5728 5727 5727 5726 5725 5724 5723 5722 5722 5721 5720 5719 5718 5717 5715 5714 5713 5713 5712 5711 5710 5708 5707 5705 5704 5702 5701 5700 5700 5699 5698
5723 5723 5723 5723 5723 5722 5722 5722 5721 5720 5720 5719 5718 5717 5716 5716 5715 5714 5714 5712 5711 5710 5709 5707 5706 5705 5704 5703 5702 5700 5699 5697 5696 5695 5694 5693 5692 5692
5717 5717 5716 5716 5716 5716 5716 5715 5715 5714 5714 5713 5712 5712 5711 5710 5710 5709 5708 5707 5706 5704 5703 5701 5700 5699 5698 5696 5695 5694 5693 5691 5690 5688 5687 5686 5685 5685
5710 5710 5710 5710 5710 5709 5709 5709 5708 5708 5707 5707 5706 5705 5705 5704 5704 5703 5702 5701 5700 5698 5697 5695 5694 5693 5692 5690 5689 5687 5686 5685 5683 5682 5680 5680 5679 5678
5704 5704 5703 5703 5703 5703 5702 5702 5702 5702 5701 5701 5700 5699 5699 5698 5698 5697 5696 5695 5693 5692 5691 5689 5688 5687 5686 5684 5682 5680 5679 5678 5676 5675 5674 5673 5672 5671
5698 5697 5697 5697 5696 5696 5695 5695 5695 5695 5694 5694 5693 5693 5692 5692 5691 5690 5689 5688 5687 5685 5684 5683 5681 5680 5678 5677 5676 5674 5672 5670 5669 5668 5667 5666 5665 5664
5691 5691 5690 5690 5689 5689 5689 5688 5688 5688 5688 5687 5687 5686 5686 5685 5684 5683 5682 5681 5680 5678 5677 5676 5674 5672 5671 5670 5668 5666 5665 5663 5662 5661 5660 5659 5658 5656
5684 5684 5683 5683 5683 5682 5682 5681 5681 5681 5680 5680 5679 5679 5678 5677 5677 5676 5675 5674 5672 5671 5669 5668 5667 5665 5664 5662 5661 5659 5658 5656 5655 5654 5652 5652 5650 5649
5676 5676 5676 5675 5675 5674 5674 5674 5674 5673 5672 5672 5671 5671 5670 5669 5669 5668 5667 5666 5664 5663 5662 5661 5659 5658 5656 5655 5654 5652 5651 5649 5648 5647 5646 5644 5643 5642